Location: The D'Auria's Ocala Star Observatory
(29.0276°N, 82.1742°W)
Time: 11:31:48
(UTC-05:00)

Okean 3 Rocket - Visible Passes

Search period start: 20 December 2014 00:00
Search period end: 30 December 2014 00:00
Orbit: 617 x 645 km, 82.5° (Epoch: 19 December)

Date Brightness Start Highest point End Pass type
(mag) Time Alt. Az. Time Alt. Az. Time Alt. Az.
20 Dec 6.5 04:39:38 10° NE 04:42:02 14° ENE 04:44:26 10° ESE visible
20 Dec 4.2 06:16:12 11° NNW 06:20:12 34° W 06:24:15 10° SSW visible
20 Dec 5.1 18:42:26 10° SSW 18:46:34 37° W 18:50:45 10° NNW visible
21 Dec 5.4 05:00:57 19° NNE 05:03:26 31° E 05:07:24 10° SE visible
21 Dec 5.2 06:38:33 10° NW 06:41:12 16° W 06:43:51 10° SW visible
21 Dec 6.4 19:05:00 10° WSW 19:07:55 17° WNW 19:10:53 10° NW visible
22 Dec 3.8 05:23:13 41° N 05:24:42 72° E 05:29:10 10° SSE visible
23 Dec 3.8 05:45:28 47° WNW 05:45:51 48° W 05:50:09 10° SSW visible
23 Dec 4.5 18:07:46 10° SSW 18:12:07 53° W 18:16:32 10° N visible
24 Dec 6.1 04:30:14 20° ESE 04:30:14 20° ESE 04:32:29 10° SE visible
24 Dec 5.0 06:07:43 20° WSW 06:07:43 20° WSW 06:10:16 10° SW visible
24 Dec 6.0 18:29:51 10° SW 18:33:26 23° WNW 18:37:03 10° NNW visible
25 Dec 5.4 04:52:28 27° SE 04:52:28 27° SE 04:54:37 10° SSE visible
25 Dec 6.9 18:54:02 10° W 18:54:52 10° WNW 18:55:42 10° WNW visible
26 Dec 5.6 05:14:40 19° S 05:14:40 19° S 05:15:54 10° S visible
27 Dec 5.6 17:54:56 10° SW 17:58:57 32° W 18:03:00 10° NNW visible
28 Dec 6.5 18:17:48 10° WSW 18:20:20 15° WNW 18:22:53 10° NW visible
